Weather in Mikhaylovskoe

Russia / Altai Krai     51°49′08″N   79°42′38″E
temp.,
°C
wind,
m/s
gust,
m/s
humid.,
%
clouds,
%
prec.,
mm/h
press.,
hPa
HPBL,
m
17 may, mon
mon1701:00+18wsw457120 1.3 1014127
04:00+16w38785 0.0 1014200
07:00+16nw39799 0.0 1014293
10:00+22nnw465133 0.0 1016797
13:00+25nnw44395 0.0 10161875
16:00+27nnw553312 0.0 10152231
19:00+26n56315 0.0 10161827
22:00+21e22475 0.0 101518
18 may, tue
tue1801:00+19wsw2251100 0.0 101523
04:00+18sw3354100 0.0 101448
07:00+19wsw39563 0.0 1013236
10:00+26wsw58374 0.0 1011773
13:00+31w682464 0.0 10093681
16:00+28nw692588 0.1 10071116
19:00+29nw78254 0.1 10062980
22:00+22nw374226 0.1 1007133
19 may, wed
wed1901:00+19wsw4865100 1.2 1007148
04:00+17wnw3371100 0.3 100558
07:00+16w4981100 0.8 1006418
10:00+19nw686087 0.1 10061085
13:00+19nnw986294 0.2 10081142
16:00+16nne7854100 0.0 10101342
19:00+14nne71051100 0.0 10121561
22:00+13nne4947100 0.0 1015602
20 may, thu
thu2001:00+10nne611403 0.0 1017649
04:00+7n410450 0.0 1018357
07:00+7nnw374831 0.0 1019200
10:00+13nw6103398 0.0 10191981
13:00+16nnw693198 0.0 10182308
16:00+16nnw693395 0.0 10182284
19:00+17nnw683487 0.0 10182147
22:00+13n114726 0.0 101810
21 may, fri
fri2101:00+10se1145100 0.0 102111
04:00+10ssw3745100 0.0 1020268
07:00+11sw51447100 0.0 1018647
10:00+15wnw61346100 0.0 1017884
13:00+20nw594243 0.0 10161257
16:00+25nw8133445 0.0 10142293
19:00+27nw612315 0.0 10132946
22:00+20wsw4146347 0.9 1013425